CZ-3B DEB, 52965

Orbit data source: Space-Track

CZ-3B DEB, 52965 is space debris in HEO originally from a launch on Sat, 04 Sep 2010 UTC launched from the Xichang Space Center, China (XSC). Debris objects in space refer to the collection of defunct objects orbiting the Earth. Examples of debris include non-operational satellites, rocket bodies, and fragments generated from explosions, collisions, or faulty payload assembly.

Loading next visibility...
CZ-3B DEB details
Identifier
52965, 2010-042AJ
Orbit
HEO
Last TLE update3 days ago
Origin
Flag of CNCASC (CN / PRC)
ManufacturerCALT
MissionSpacecraft
Bus & MotorUnknown
MassUnknown
Launch date (UTC)
2010-09-04 (14 years ago)
Launch vehicleUnknown
Launch site
Xichang Space Center, China (XSC)
Object type
Payload
Rocket body
Debris
Shape & HBRUnknown
Radar Cross SectionSmall (<0.1 m²)

Expand to show TLE details & history

TLE from 3 days ago
0 CZ-3B DEB
1 52965U 10042AJ  24358.13508246 -.00000287  00000-0  79451-2 0  9991
2 52965  25.0317   5.1423 7422319 257.1038  18.1945  1.82756891 18392
Epoch: 2024-12-23T03:14Z
Definitive object data (Epoch: 2024-12-23T03:14:31.124Z)
Latitude-0.0009°
Longitude-135.64151°
Altitude8,787.39 km
Speed6.201 km/s
True Right ascension00h 20m 36s
True Declination0° 00' 03"
Sunlit
Object was in daylight at TLE epoch
Visualization TLE readout
Latitude23.69405°
Longitude-66.59208°
Altitude41,864.97 km
Speed1.556 km/s
Apparent Right ascension04h 41m 14s
Apparent Declination17° 41' 45"
Sunlit
Object is in daylight
Visualization observer readout
Local Sidereal Time14:10:23
Azimuth320.887° NNW
Elevation-22.52°
Doppler factor1
Orbital elements
Apogee altitude42,861.757 km
Perigee altitude907.044 km
Semi-major axis28,262.537 km
Eccentricity0.7422319
Inclination25.0317°
RAAN5.1423°
Arg. of periapsis257.1038°
True anomaly102.80351°
Mean anomaly18.1945°
Eccentric anomaly51.4559°
Mean motion0.4568 °/min
BSTAR0.0079451
Orbital period788.09 mins
Loading maneuver chart data...
Loading historical data...
Loading historical data...
Loading historical data...
Loading historical data...
Loading historical data...
Loading historical data...
Loading historical data...

CZ-3B DEB Visibility forecast

Observer location: undefined°, undefined

Span
Click to sort rows by Start time (UTC) header in descending order
Start Az.
Max El. time (UTC)
Max El. Az.
Max El.
End time (UTC)
End Az.
737 mins2024-12-26 22:57:29.538Z159.653° S2024-12-27 06:51:29.538Z179.447° S43.692°2024-12-27 11:14:29.538Z146.274° SSE
|